Regional Weather Roundup
Issued by NWS

Home | Current Version | Previous Version | Graphics & Text | Print | Product List | Glossary On
Versions: 1 2 3 4 5 6 7 8 9 10 11 12 13 14 15 16 17 18 19 20 21 22 23 24 25 26 27 28 29 30 31 32 33 34 35 36 37 38 39 40 41 42 43 44 45 46 47 48 49 50
000
ASUS43 KMPX 232210
RWRMN
WEATHER ROUNDUP FOR MINNESOTA
NATIONAL WEATHER SERVICE TWIN CITIES/CHANHASSEN MN
500 PM CDT TUE SEP 23 2014


NOTE: "FAIR" INDICATES FEW OR NO CLOUDS BELOW 12,000 FEET WITH NO
SIGNIFICANT WEATHER AND/OR OBSTRUCTIONS TO VISIBILITY. N/A MEANS
CURRENT SKY AND/OR WEATHER CONDITIONS ARE NOT AVAILABLE.

MNZ060>063-068>070-232300-
   Twin Cities Metro

CITY           SKY/WX    TMP DP  RH WIND       PRES   REMARKS
TWIN CITIES    PTSUNNY   73  50  44 SE10      30.14F
ST PAUL        MOSUNNY   71  52  50 SE10      30.15F
CRYSTAL        MOSUNNY   73  50  44 S12       30.13F
BLAINE         PTSUNNY  N/A N/A N/A S12G18    30.15
LAKEVILLE      SUNNY     72  50  46 S5        30.15S
EDEN PRAIRIE   MOSUNNY   73  51  46 S13       30.13F
SOUTH ST PAUL  MOSUNNY   72  50  44 SE6       30.15S
LAKE ELMO      FAIR      72  52  49 S13       30.17F
$$
MNZ001>005-007-008-013>017-022>024-027-028-232300-
   Northwest Minnesota

CITY           SKY/WX    TMP DP  RH WIND       PRES   REMARKS
BEMIDJI        PTSUNNY   74  50  43 S13       30.06S
HALLOCK        SUNNY     75  57  53 S18       29.96S
ROSEAU         SUNNY     79  57  47 S15G22    30.00S
WARROAD        SUNNY     77  57  50 S13G18    30.01S
THIEF RVR FALL PTSUNNY   75  54  46 S13G20    30.00F
CROOKSTON      MOSUNNY   75  52  43 S22G29    30.01S
FOSSTON        MOSUNNY   75  50  41 S14G21    30.04F
DETROIT LAKES  MOSUNNY   64  54  68 S10G21    30.09R
MOORHEAD       CLOUDY    66  52  59 S14G22    30.06R
PARK RAPIDS    MOSUNNY   71  52  50 S13       30.08S
MAHNOMEN         N/A     72  53  50 S17G26    30.05R
$$
MNZ006-009>011-018-025>026-232300-
   North Central Minnesota

CITY           SKY/WX    TMP DP  RH WIND       PRES   REMARKS
BAUDETTE       SUNNY     75  51  43 S12G21    30.03F
FLAG ISLAND    SUNNY     66  55  68 SE12      30.00F
INTL FALLS     SUNNY     73  51  46 VRB7      30.07F
WASKISH        SUNNY     73  54  49 S7        30.06S
BIG FORK       SUNNY     72  50  46 S7        30.10F
LONGVILLE      MOSUNNY   72  52  49 S10G17    30.10S
GRAND RAPIDS   MOSUNNY   70  52  52 SE12      30.12F
CRANE LAKE     SUNNY     73  48  40 S6        30.11F
ORR            SUNNY     73  45  35 S8G17     30.09S
COOK           SUNNY     73  46  38 S9        30.12S
WALKER         FAIR      73  49  43 S12       30.08S
$$
MNZ012-019>021-037-232300-
   Northeast Minnesota

CITY           SKY/WX    TMP DP  RH WIND       PRES   REMARKS
DULUTH         SUNNY     71  50  47 S9        30.16S
ELY            SUNNY     72  46  40 S10       30.13F
HIBBING        SUNNY     72  48  42 S7        30.13F
EVELETH        SUNNY     72  48  43 S9        30.15S
DULUTH HARBOR  SUNNY     73  54  49 S10       30.15S
TWO HARBORS    SUNNY     72  54  53 S7        30.14S
SILVER BAY     SUNNY     70  55  60 S10       30.15S
GRAND MARAIS     N/A     56  52  86 CALM      30.17F
G MARAIS ARPRT SUNNY     66  46  48 S8        30.20S
$$
MNZ029>031-032-039>041-046>048-054>057-064-232300-
   West Central Minnesota

CITY           SKY/WX    TMP DP  RH WIND       PRES   REMARKS
FERGUS FALLS   CLOUDY    64  45  48 SE12      30.07F
WHEATON        CLOUDY    59  52  77 SE10      30.07F
MORRIS         CLOUDY    66  54  63 SE10      30.07S
ALEXANDRIA     PTSUNNY   66  53  63 S13       30.11F
ELBOW LAKE     FAIR      65  49  57 SE12      30.07F
WADENA         PTSUNNY   70  54  56 S13       30.10R
GLENWOOD       PTSUNNY   68  55  64 SE10      30.10F
APPLETON       CLOUDY    66  54  63 S9G21     30.06F
BENSON         PTSUNNY   66  54  63 S12G18    30.08S
ORTONVILLE     CLOUDY    64  55  72 SE15G22   30.05F
MADISON        LGT RAIN  64  55  72 SE13G28   30.07R
WILLMAR        FAIR      72  52  49 SE8       30.10F
$$
MNZ033>034-036-042>043-049>051-058-059-232300-
   Central Minnesota

CITY           SKY/WX    TMP DP  RH WIND       PRES   REMARKS
ST CLOUD       MOSUNNY   73  52  47 SE15      30.11F
SAUK CENTRE    FAIR      70  53  55 SE16      30.11R
PAYNESVILLE    PTSUNNY   69  51  52 E12G17    30.11F
AITKIN         MOSUNNY   73  52  46 S10       30.11S
PINE RIVER     MOSUNNY   72  54  53 S8        30.13S
BRAINERD       MOSUNNY   69  52  54 S12       30.12S
STAPLES        PTSUNNY   68  52  56 S12       30.11R
LONG PRAIRIE   PTSUNNY   70  52  52 SE13G23   30.10F
LITTLE FALLS   PTSUNNY   70  50  49 S9G20     30.11F
LITCHFIELD     PTSUNNY   72  54  53 SE8       30.11F
BUFFALO        MOSUNNY   71  52  50 SE8       30.14S
MAPLE LAKE     MOSUNNY   73  56  56 SE7       30.13F
$$
MNZ037-044-045-052-053-232300-
   East Central Minnesota

CITY           SKY/WX    TMP DP  RH WIND       PRES   REMARKS
PRINCETON      PTSUNNY   73  54  49 SE9       30.14S
MORA           MOSUNNY   70  50  49 S10       30.16S
CAMBRIDGE      MOSUNNY   73  55  53 SE8       30.13S
RUSH CITY      MOSUNNY   72  51  48 S7        30.15S
MOOSE LAKE     PTSUNNY   72  50  46 S7G18     30.13S
HINCKLEY       FAIR      72  54  53 SE6       30.14F
CLOQUET        MOSUNNY   70  48  46 S8        30.15F
MCGREGOR       PTSUNNY   72  50  46 S9        30.13F
$$
MNZ071>073-080-081-089-090-097-098-232300-
   Southwest Minnesota

CITY           SKY/WX    TMP DP  RH WIND       PRES   REMARKS
MONTEVIDEO     RAIN      64  54  68 SW12G22   30.10R
GRANITE FALLS  LGT RAIN  59  56  88 S10       30.11R
CANBY          CLOUDY    60  55  84 S15       30.08R
MARSHALL       PTSUNNY   59  54  82 S8        30.08S
REDWOOD FALLS  CLOUDY    65  55  70 S8        30.10S
OLIVIA         LGT RAIN  70  48  46 S17G23    30.09S
PIPESTONE      DRIZZLE   59  55  88 S14       30.06F
WINDOM         LGT RAIN  63  55  77 S15       30.12S
WORTHINGTON    CLOUDY    61  52  72 SE15G24   30.11F
JACKSON        LGT RAIN  63  52  67 S17G23    30.14R
TRACY          LGT RAIN  61  58  90 CALM      30.10F
SLAYTON        CLOUDY    59  54  85 SE16G23   30.10F
$$
MNZ065>067-074>077-082>085-091>093-232300-
   South Central Minnesota

CITY           SKY/WX    TMP DP  RH WIND       PRES   REMARKS
MANKATO        PTSUNNY   72  48  43 S10G18    30.13S
NEW ULM        CLOUDY    70  52  52 S13       30.11S
ST JAMES       LGT RAIN  66  54  63 S10       30.13S
FAIRMONT       CLOUDY    66  50  55 S15       30.14R
GLENCOE        PTSUNNY   73  48  41 SE10      30.12S
FARIBAULT      PTSUNNY   73  43  33 SE10      30.15F
OWATONNA       PTSUNNY   72  48  43 SE8       30.16S
WASECA         PTSUNNY   72  45  37 SE7G21    30.16F
ALBERT LEA     CLOUDY    70  48  46 S13       30.16F
$$
MNZ078>079-086>088-094>096-232300-
   Southeast Minnesota

CITY           SKY/WX    TMP DP  RH WIND       PRES   REMARKS
ROCHESTER      MOSUNNY   69  49  48 S10       30.19F
RED WING       MOSUNNY   73  48  40 S7G16     30.16S
STANTON        SUNNY     72  49  44 S9G20     30.14F
DODGE CENTER   MOSUNNY   70  52  52 S14       30.18S
WINONA         MOSUNNY   73  54  49 CALM      30.20R
AUSTIN         PTSUNNY   72  50  46 SE10      30.17F
PRESTON        MOSUNNY   69  54  58 S10       30.20F
$$
ABBREVIATIONS USED IN REMARKS
   TC - TEMPERATURES IN CELSIUS
  WCI - WIND CHILL INDEX
   HX - HEAT INDEX
  VSB - VISIBILITY
$$



USA.gov is the U.S. government's official web portal to all federal, state and local government web resources and services.